TimePST,TemperatureF,Dew PointF,Humidity,Sea Level PressureIn,VisibilityMPH,Wind Direction,Wind SpeedMPH,Gust SpeedMPH,PrecipitationIn,Events,Conditions,WindDirDegrees,DateUTC
12:07 AM,30.9,30.0,96,30.03,2.5,West,5.8,-,N/A,,Overcast,280,2013-01-26 08:07:00
12:19 AM,30.9,30.9,100,30.02,1.0,NW,5.8,-,N/A,,Mist,320,2013-01-26 08:19:00
12:26 AM,32.0,30.9,96,30.02,4.0,NNW,4.6,-,N/A,,Overcast,330,2013-01-26 08:26:00
12:45 AM,35.1,34.0,96,30.02,2.5,NW,3.5,-,N/A,,Overcast,310,2013-01-26 08:45:00
12:49 AM,35.6,33.8,93,30.02,4.0,NW,4.6,-,N/A,,Overcast,310,2013-01-26 08:49:00
12:53 AM,34.0,33.1,96,30.05,5.0,NW,4.6,-,N/A,,Overcast,320,2013-01-26 08:53:00
1:14 AM,34.0,33.1,96,30.02,1.8,Calm,Calm,-,N/A,,Mostly Cloudy,0,2013-01-26 09:14:00
1:20 AM,34.0,33.1,96,30.01,0.2,Calm,Calm,-,N/A,Fog,Fog,0,2013-01-26 09:20:00
1:32 AM,32.0,32.0,100,30.01,0.5,ESE,9.2,-,N/A,Fog,Fog,120,2013-01-26 09:32:00
1:40 AM,33.1,33.1,100,30.01,1.0,ESE,6.9,-,N/A,,Overcast,110,2013-01-26 09:40:00
1:45 AM,33.1,33.1,100,30.01,3.0,East,5.8,-,N/A,,Overcast,100,2013-01-26 09:45:00
1:53 AM,34.0,33.1,96,30.03,5.0,ESE,4.6,-,N/A,,Overcast,110,2013-01-26 09:53:00
2:53 AM,33.1,32.0,96,30.01,8.0,NW,4.6,-,N/A,,Overcast,310,2013-01-26 10:53:00
3:53 AM,32.0,30.9,96,29.99,4.0,WNW,8.1,-,N/A,,Mostly Cloudy,300,2013-01-26 11:53:00
4:53 AM,28.9,28.9,100,30.00,2.0,SE,5.8,-,N/A,,Mostly Cloudy,140,2013-01-26 12:53:00
4:59 AM,28.9,28.9,100,29.97,0.8,SE,5.8,-,N/A,,Mostly Cloudy,140,2013-01-26 12:59:00
5:08 AM,28.0,28.0,100,29.97,0.2,SE,4.6,-,N/A,Fog,Light Freezing Fog,130,2013-01-26 13:08:00
5:53 AM,30.0,28.0,92,29.99,0.2,Calm,Calm,-,N/A,Fog,Light Freezing Fog,0,2013-01-26 13:53:00
6:53 AM,28.0,28.0,100,30.01,0.2,Calm,Calm,-,N/A,Fog,Light Freezing Fog,0,2013-01-26 14:53:00
7:53 AM,30.0,30.0,100,30.01,0.2,Calm,Calm,-,N/A,Fog,Light Freezing Fog,0,2013-01-26 15:53:00
8:53 AM,30.9,30.9,100,30.00,0.2,South,3.5,-,N/A,Fog,Light Freezing Fog,170,2013-01-26 16:53:00
9:53 AM,32.0,32.0,100,29.99,0.2,Calm,Calm,-,N/A,Fog,Fog,0,2013-01-26 17:53:00
10:26 AM,37.0,37.0,100,29.93,1.0,Calm,Calm,-,N/A,,Mist,0,2013-01-26 18:26:00
10:34 AM,37.9,37.9,100,29.93,3.0,Calm,Calm,-,N/A,,Overcast,0,2013-01-26 18:34:00
10:53 AM,39.9,39.9,100,29.96,10.0,Calm,Calm,-,N/A,,Scattered Clouds,0,2013-01-26 18:53:00
11:19 AM,39.9,39.0,97,29.90,5.0,East,5.8,-,N/A,,Mostly Cloudy,100,2013-01-26 19:19:00
11:53 AM,45.0,41.0,86,29.91,10.0,Calm,Calm,-,N/A,,Scattered Clouds,0,2013-01-26 19:53:00
12:53 PM,48.9,42.1,77,29.85,10.0,ESE,4.6,-,N/A,,Clear,120,2013-01-26 20:53:00
1:53 PM,52.0,39.9,63,29.81,10.0,SSE,6.9,-,N/A,,Clear,160,2013-01-26 21:53:00
2:53 PM,55.0,37.0,51,29.79,10.0,South,10.4,-,N/A,,Clear,190,2013-01-26 22:53:00
3:53 PM,54.0,37.0,53,29.78,10.0,West,5.8,-,N/A,,Partly Cloudy,260,2013-01-26 23:53:00
4:53 PM,52.0,34.0,50,29.78,10.0,West,13.8,-,N/A,,Partly Cloudy,280,2013-01-27 00:53:00
6:53 PM,46.0,32.0,58,29.82,10.0,NW,12.7,-,N/A,,Partly Cloudy,320,2013-01-27 02:53:00
7:53 PM,45.0,30.0,56,29.84,10.0,NNE,4.6,-,N/A,,Clear,20,2013-01-27 03:53:00
8:53 PM,39.9,28.0,63,29.86,10.0,ENE,5.8,-,N/A,,Clear,70,2013-01-27 04:53:00
9:53 PM,37.0,27.0,67,29.88,10.0,NW,6.9,-,N/A,,Clear,320,2013-01-27 05:53:00
10:53 PM,36.0,28.9,76,29.89,10.0,NNE,11.5,-,N/A,,Scattered Clouds,30,2013-01-27 06:53:00
11:53 PM,35.1,30.0,82,29.89,10.0,NNE,10.4,-,N/A,,Overcast,20,2013-01-27 07:53:00